Location: Dodgeville
(42.9600°N, 90.1300°W)
Time: 14:42:41
(UTC-05:00)

Uosat F - Visible Passes

Search period start: 18 September 2014 00:00
Search period end: 28 September 2014 00:00
Orbit: 751 x 763 km, 98.7° (Epoch: 17 September)

Date Brightness Start Highest point End Pass type
(mag) Time Alt. Az. Time Alt. Az. Time Alt. Az.
18 Sep 11.3 05:24:34 10° NNE 05:29:36 71° ESE 05:34:37 10° S visible
19 Sep 12.9 04:45:54 10° NE 04:50:20 30° E 04:54:44 10° SSE visible
20 Sep 13.9 04:08:32 10° ENE 04:10:50 13° E 04:13:07 10° ESE visible
20 Sep 11.0 05:45:08 10° N 05:50:10 75° WNW 05:55:10 10° SSW visible
21 Sep 12.1 05:06:08 10° NNE 05:11:00 47° E 05:15:50 10° S visible
22 Sep 13.5 04:27:53 10° NE 04:31:37 21° E 04:35:19 10° SE visible
22 Sep 11.3 06:05:49 10° N 06:10:39 49° WNW 06:15:28 10° SW visible
23 Sep 11.3 05:26:33 10° NNE 05:31:36 74° ESE 05:36:37 10° S visible
24 Sep 12.8 04:47:52 10° NE 04:52:20 31° E 04:56:47 10° SSE visible
25 Sep 13.9 04:10:23 10° ENE 04:12:50 14° E 04:15:16 10° ESE visible
25 Sep 11.0 05:47:07 10° N 05:52:09 73° WNW 05:57:09 10° SSW visible
26 Sep 12.0 05:08:06 10° NNE 05:12:59 48° E 05:17:51 10° S visible
27 Sep 13.5 04:29:49 10° NE 04:33:36 21° E 04:37:23 10° SE visible
27 Sep 11.3 06:07:48 10° N 06:12:37 47° WNW 06:17:26 10° SW visible
